User: anonymous   Login
Location: ??
(31.9467°N, 34.8903°E)
Time: 12:44:14
(UTC+00:00)
Language:

COSMO-SKYMED 1 - Orbit

View from above orbital plane
View from above orbital plane
View from above satellite
View from above satellite

Ground track
Ground track

The orbit data is extracted from the following two-line orbital elements,

1 31598U 07023A   21019.10642540 -.00000091  00000-0 -48958-5 0  9994
2 31598  97.8829 205.1329 0001428  91.3469 268.7897 14.82156441736773
Epoch (UTC): 19 January 2021 02:33:15
Eccentricity: 0.0001428
inclination: 97.8829°
perigee height: 621 km
apogee height: 623 km
right ascension of ascending node: 205.1329°
argument of perigee: 91.3469°
revolutions per day: 14.82156441
mean anomaly at epoch: 268.7897°
orbit number at epoch: 73677

The dashed part of the orbit path shows where the satellite is in the earth's shadow,  

DLR